Location: Briis
(48.6240°N, 2.1211°E)
Time: 16:14:28
(UTC+00:00)

Cosmos 2298 Rocket - Pass Details

Date: 25 September 2020
Orbit: 776 x 783 km, 74.0° (Epoch: 21 October)

Event Time Altitude Azimuth Distance (km) Brightness Sun altitude
Rises 04:44:09 0° 333° (NNW) 3,277 7.1 -10.5°
Reaches altitude 10° 04:46:36 10° 329° (NNW) 2,344 6.3 -10.1°
Maximum altitude 04:51:45 52° 254° (WSW) 962 4.2 -9.2°
Drops below altitude 10° 04:56:51 10° 179° (S) 2,323 6.4 -8.4°
Sets 04:59:16 0° 174° (S) 3,245 7.2 -8.0°
